{"data":{"norad_id":62768,"epoch":"2026-09-21T22:17:06.681984Z","epoch_age_seconds":47861,"freshness":"FRESH","line1":"1 62768U 25015L   26264.92854956  .00015434  00000+0  46682-3 0  9995","line2":"2 62768  53.1579 126.8701 0001399 136.8522 223.2591 15.34410349 94589","mean_motion":15.34410349,"eccentricity":0.0001399,"inclination_deg":53.1579,"raan_deg":126.8701,"arg_perigee_deg":136.8522,"mean_anomaly_deg":223.2591,"bstar":0.00046682,"rev_number":9458,"period_min":93.847125114769,"perigee_km":461.71545172465,"apogee_km":463.62951021742,"semimajor_km":6840.809480971,"source":"CELESTRAK","updated_at":"2026-09-22T09:00:49.662455Z"}}